Tracking 18945 objects as of 21-Jan-2018
HD Live streaming from Space Station
objects crossing your sky now

LEMUR 2 GREENBERG

Track LEMUR 2 GREENBERG now!
10-day predictions
LEMUR 2 GREENBERG is classified as:


NORAD ID: 42837
Int'l Code: 2017-042N
Perigee: 592.1 km
Apogee: 609.9 km
Inclination: 97.6 °
Period: 96.6 minutes
Semi major axis: 6972 km
RCS: Unknown
Launch date: July 14, 2017
Source: United States (US)
Launch site: TYURATAM MISSILE AND SPACE COMPLEX (TTMTR)
aabbcc
Your satellite tracking list
Your tracking list is empty




NASA's NSSDC Master Catalog

Two Line Element Set (TLE):
1 42837U 17042N   18020.51044042  .00000511  00000-0  56658-4 0  9990
2 42837  97.6082 288.4568 0012743 335.6376  24.4239 14.91297405 28342
Source of the keplerian elements: AFSPC